Location: Feudal
(51.8839°N, 107.6105°W)
Time: 11:57:25
(UTC+00:00)

Envisat - Pass Details

Date: 22 January 2022
Orbit: 764 x 765 km, 98.2° (Epoch: 22 May)

Event Time Altitude Azimuth Distance (km) Brightness Sun altitude
Rises 11:45:09 0° 18° (NNE) 3,244 6.5 -30.2°
Reaches altitude 10° 11:47:33 10° 24° (NNE) 2,313 5.8 -29.8°
Maximum altitude 11:52:29 48° 99° (E) 993 3.8 -29.0°
Drops below altitude 10° 11:57:23 10° 174° (S) 2,297 5.5 -28.3°
Sets 11:59:45 0° 180° (S) 3,219 6.2 -27.9°
